• In India
  • List of Countries
  • For 7 days
  • Water Temperature
  • Satellite Maps
  • Weather Map
  • Weather Widgets
  • user-avatar
    Login

    Hourly Weather Popivtsi

    Today, 14 August, Tuesday

    Time Temperature Precipitation Wind Pressure Humidity
    00:00 +21°C° 0 mm 1 mps 731 mmHg 65%
    01:00 +21°C° 0 mm 1 mps 731 mmHg 65%
    02:00 +21°C° 0 mm 1 mps 731 mmHg 64%
    03:00 +20°C° 0 mm 1 mps 731 mmHg 63%
    04:00 +19°C° 0 mm 2 mps 731 mmHg 61%
    05:00 +19°C° 0 mm 2 mps 731 mmHg 59%
    06:00 +20°C° 0 mm 2 mps 731 mmHg 57%
    07:00 +23°C° 0 mm 2 mps 731 mmHg 56%
    08:00 +24°C° 0 mm 2 mps 731 mmHg 54%
    09:00 +26°C° 0 mm 3 mps 732 mmHg 50%
    10:00 +28°C° 0 mm 3 mps 732 mmHg 47%
    11:00 +29°C° 0 mm 4 mps 732 mmHg 43%
    12:00 +30°C° 0 mm 4 mps 732 mmHg 41%
    13:00 +30°C° 0 mm 4 mps 732 mmHg 40%
    14:00 +32°C° 0 mm 4 mps 732 mmHg 38%
    15:00 +31°C° 0 mm 3 mps 732 mmHg 40%
    16:00 +31°C° 0 mm 3 mps 732 mmHg 42%
    17:00 +30°C° 0 mm 3 mps 731 mmHg 44%
    18:00 +28°C° 0 mm 3 mps 731 mmHg 45%
    19:00 +26°C° 0 mm 2 mps 731 mmHg 47%
    20:00 +24°C° 0 mm 2 mps 731 mmHg 48%
    21:00 +23°C° 0 mm 2 mps 731 mmHg 47%
    22:00 +21°C° 0 mm 2 mps 731 mmHg 46%
    23:00 +21°C° 0 mm 2 mps 731 mmHg 46%

    Tomorrow, 15 August, Wednesday

    Time Temperature Precipitation Wind Pressure Humidity
    00:00 +20°C° 0 mm 2 mps 731 mmHg 45%
    01:00 +20°C° 0 mm 3 mps 731 mmHg 45%
    02:00 +19°C° 0 mm 3 mps 731 mmHg 45%
    03:00 +19°C° 0 mm 3 mps 731 mmHg 48%
    04:00 +18°C° 0 mm 3 mps 730 mmHg 50%
    05:00 +18°C° 0 mm 3 mps 730 mmHg 53%
    06:00 +19°C° 0 mm 3 mps 731 mmHg 54%
    07:00 +21°C° 0 mm 3 mps 731 mmHg 55%
    08:00 +24°C° 0 mm 3 mps 731 mmHg 56%
    09:00 +26°C° 0 mm 3 mps 731 mmHg 52%
    10:00 +27°C° 0 mm 3 mps 731 mmHg 48%
    11:00 +29°C° 0 mm 4 mps 732 mmHg 44%
    12:00 +30°C° 0 mm 4 mps 732 mmHg 42%
    13:00 +32°C° 0 mm 4 mps 732 mmHg 40%
    14:00 +33°C° 0 mm 4 mps 732 mmHg 39%
    15:00 +31°C° 0 mm 3 mps 732 mmHg 42%
    16:00 +31°C° 0 mm 3 mps 732 mmHg 45%
    17:00 +30°C° 0 mm 3 mps 732 mmHg 47%
    18:00 +28°C° 0.5 mm 3 mps 732 mmHg 56%
    19:00 +25°C° 0.5 mm 3 mps 732 mmHg 65%
    20:00 +22°C° 0.5 mm 3 mps 732 mmHg 74%
    21:00 +21°C° 0.5 mm 3 mps 732 mmHg 79%
    22:00 +20°C° 0.5 mm 3 mps 732 mmHg 83%
    23:00 +20°C° 0.5 mm 3 mps 732 mmHg 88%

    Day after tomorrow, 16 August, Thursday

    Time Temperature Precipitation Wind Pressure Humidity
    00:00 +19°C° 0.6 mm 3 mps 732 mmHg 89%
    01:00 +19°C° 0.6 mm 3 mps 732 mmHg 90%
    02:00 +19°C° 0.6 mm 3 mps 732 mmHg 91%
    03:00 +19°C° 0.1 mm 3 mps 732 mmHg 91%
    04:00 +19°C° 0.1 mm 3 mps 732 mmHg 91%
    05:00 +18°C° 0.1 mm 3 mps 732 mmHg 92%
    06:00 +19°C° 0 mm 3 mps 732 mmHg 88%
    07:00 +20°C° 0 mm 3 mps 733 mmHg 84%
    08:00 +21°C° 0 mm 3 mps 733 mmHg 80%
    09:00 +22°C° 0.4 mm 3 mps 733 mmHg 75%
    10:00 +25°C° 0.4 mm 3 mps 733 mmHg 70%
    11:00 +26°C° 0.4 mm 3 mps 734 mmHg 65%
    12:00 +26°C° 0.2 mm 3 mps 733 mmHg 64%
    13:00 +26°C° 0.2 mm 3 mps 733 mmHg 63%
    14:00 +27°C° 0.2 mm 3 mps 733 mmHg 62%
    15:00 +26°C° 0.2 mm 3 mps 733 mmHg 64%
    16:00 +26°C° 0.2 mm 4 mps 733 mmHg 67%
    17:00 +25°C° 0.2 mm 4 mps 733 mmHg 70%
    18:00 +24°C° 0 mm 3 mps 733 mmHg 75%
    19:00 +21°C° 0 mm 3 mps 733 mmHg 80%
    20:00 +20°C° 0 mm 3 mps 733 mmHg 85%
    21:00 +19°C° 0.2 mm 3 mps 733 mmHg 86%
    22:00 +19°C° 0.2 mm 2 mps 733 mmHg 88%
    23:00 +18°C° 0.2 mm 2 mps 733 mmHg 89%

    17 August, Friday

    Time Temperature Precipitation Wind Pressure Humidity
    00:00 +18°C° 0 mm 2 mps 733 mmHg 89%
    01:00 +18°C° 0 mm 2 mps 733 mmHg 89%
    02:00 +18°C° 0 mm 2 mps 733 mmHg 89%
    03:00 +17°C° 0 mm 2 mps 733 mmHg 90%
    04:00 +17°C° 0 mm 2 mps 733 mmHg 90%
    05:00 +17°C° 0 mm 2 mps 733 mmHg 90%
    06:00 +18°C° 0 mm 2 mps 733 mmHg 87%
    07:00 +19°C° 0 mm 2 mps 733 mmHg 83%
    08:00 +20°C° 0 mm 2 mps 734 mmHg 80%
    09:00 +21°C° 0.2 mm 2 mps 734 mmHg 78%
    10:00 +21°C° 0.2 mm 2 mps 734 mmHg 75%
    11:00 +23°C° 0.2 mm 2 mps 734 mmHg 73%
    12:00 +24°C° 0.3 mm 2 mps 733 mmHg 72%
    13:00 +24°C° 0.3 mm 2 mps 733 mmHg 71%
    14:00 +24°C° 0.3 mm 2 mps 733 mmHg 70%
    15:00 +24°C° 0.1 mm 2 mps 733 mmHg 69%
    16:00 +25°C° 0.1 mm 2 mps 733 mmHg 68%
    17:00 +25°C° 0.1 mm 2 mps 733 mmHg 67%
    18:00 +24°C° 0.1 mm 2 mps 733 mmHg 72%
    19:00 +22°C° 0.1 mm 1 mps 733 mmHg 76%
    20:00 +21°C° 0.1 mm 1 mps 733 mmHg 81%
    21:00 +21°C° 0.2 mm 1 mps 733 mmHg 83%
    22:00 +20°C° 0.2 mm 1 mps 733 mmHg 85%
    23:00 +20°C° 0.2 mm 1 mps 733 mmHg 87%

    18 August, Saturday

    Time Temperature Precipitation Wind Pressure Humidity
    00:00 +19°C° 0 mm 1 mps 733 mmHg 88%
    01:00 +19°C° 0 mm 1 mps 733 mmHg 88%
    02:00 +19°C° 0 mm 1 mps 733 mmHg 88%
    03:00 +19°C° 0 mm 1 mps 733 mmHg 89%
    04:00 +19°C° 0 mm 1 mps 733 mmHg 90%
    05:00 +18°C° 0 mm 1 mps 733 mmHg 91%
    06:00 +20°C° 0 mm 1 mps 733 mmHg 86%
    07:00 +21°C° 0 mm 1 mps 733 mmHg 81%
    08:00 +23°C° 0 mm 2 mps 734 mmHg 76%
    09:00 +24°C° 0.4 mm 1 mps 734 mmHg 70%
    10:00 +25°C° 0.4 mm 1 mps 734 mmHg 65%
    11:00 +27°C° 0.4 mm 1 mps 734 mmHg 59%
    12:00 +27°C° 0.9 mm 1 mps 734 mmHg 58%
    13:00 +27°C° 0.9 mm 1 mps 734 mmHg 57%
    14:00 +27°C° 0.9 mm 2 mps 734 mmHg 56%
    15:00 +27°C° 0.2 mm 1 mps 734 mmHg 56%
    16:00 +27°C° 0.2 mm 1 mps 734 mmHg 57%
    17:00 +27°C° 0.2 mm 1 mps 734 mmHg 57%
    18:00 +26°C° 0.1 mm 1 mps 734 mmHg 63%
    19:00 +24°C° 0.1 mm 1 mps 734 mmHg 70%
    20:00 +22°C° 0.1 mm 1 mps 734 mmHg 76%
    21:00 +22°C° 0 mm 1 mps 734 mmHg 79%
    22:00 +21°C° 0 mm 1 mps 734 mmHg 81%
    23:00 +20°C° 0 mm 1 mps 734 mmHg 83%

    19 August, Sunday

    Time Temperature Precipitation Wind Pressure Humidity
    00:00 +20°C° 0.3 mm 1 mps 734 mmHg 85%
    01:00 +19°C° 0.3 mm 2 mps 734 mmHg 87%
    02:00 +18°C° 0.3 mm 2 mps 734 mmHg 89%
    03:00 +18°C° 0 mm 2 mps 734 mmHg 90%
    04:00 +17°C° 0 mm 2 mps 734 mmHg 91%
    05:00 +17°C° 0 mm 2 mps 734 mmHg 92%
    06:00 +18°C° 0 mm 2 mps 734 mmHg 87%
    07:00 +20°C° 0 mm 2 mps 735 mmHg 82%
    08:00 +21°C° 0 mm 2 mps 735 mmHg 77%
    09:00 +24°C° 0 mm 3 mps 735 mmHg 70%
    10:00 +26°C° 0 mm 3 mps 735 mmHg 63%
    11:00 +27°C° 0 mm 3 mps 735 mmHg 56%
    12:00 +27°C° 0 mm 3 mps 735 mmHg 54%
    13:00 +28°C° 0 mm 3 mps 735 mmHg 52%
    14:00 +28°C° 0 mm 3 mps 735 mmHg 50%
    15:00 +28°C° 0 mm 3 mps 734 mmHg 52%
    16:00 +28°C° 0 mm 3 mps 734 mmHg 53%
    17:00 +27°C° 0 mm 3 mps 734 mmHg 55%
    18:00 +26°C° 0 mm 3 mps 734 mmHg 59%
    19:00 +24°C° 0 mm 2 mps 734 mmHg 64%
    20:00 +21°C° 0 mm 2 mps 734 mmHg 69%
    21:00 +21°C° 0 mm 2 mps 734 mmHg 70%
    22:00 +20°C° 0 mm 2 mps 734 mmHg 72%
    23:00 +19°C° 0 mm 2 mps 734 mmHg 73%
    Show more